Muscatine, IA

4:08 PM CST on December 15, 2017 (GMT -0600)
Muscatine Municipal

Weather History for KMUT - April, 2014

Change the Weather History Date:

Sunday, April 13, 2014

  Actual Average Record
Temperature  
Mean Temperature 60 °F -  
Max Temperature 71 °F 61 °F 86 °F (2006)
Min Temperature 48 °F 40 °F 19 °F (1950)
Degree Days  
Heating Degree Days 6    
Growing Degree Days 10 (Base 50)    
Moisture  
Dew Point 57 °F    
Average Humidity 88    
Maximum Humidity 100    
Minimum Humidity 57    
Precipitation  
Precipitation 1.28 in - - ()
Sea Level Pressure  
Sea Level Pressure 29.58 in    
Wind  
Wind Speed 12 mph (SE)    
Max Wind Speed 25 mph    
Max Gust Speed 36 mph    
Visibility 7 miles    
Events Rain    
Averages and records for this station are not official NWS values.
T = Trace of Precipitation, MM = Missing Value Source: NWS Daily Summary

Daily Weather History Graph

Daily Weather History Graph

Search for Another Location

Airport or City:

Trip Planner

Search our weather history database for the weather conditions in past years. The results will help you decide how hot, cold, wet, or windy it might be!

Date:

Astronomy

Apr. 13, 2014 Rise Set
Actual Time 6:28 AM CDT 7:42 PM CDT
Civil Twilight 5:59 AM CDT 8:11 PM CDT
Nautical Twilight 5:25 AM CDT 8:45 PM CDT
Astronomical Twilight 4:49 AM CDT 9:21 PM CDT
Moon 6:20 PM CDT (4/13) 5:28 AM CDT (4/13)
Length of Visible Light 14h 11m
Length of Day
13h 14m
Waxing Gibbous, 97% of the Moon is Illuminated
Apr 13
Waxing Gibbous
Apr 15
Full
Apr 22
Last Quarter
Apr 29
New
May 6
First Quarter

Hourly Weather History & Observations

Time (CDT) Temp. Dew Point Humidity Pressure Visibility Wind Dir Wind Speed Gust Speed Precip Events Conditions
12:15 AM 71.6 °F 55.4 °F 57% 29.59 in 10.0 mi South 23.0 mph 28.8 mph N/A   Mostly Cloudy
12:35 AM 71.6 °F 55.4 °F 57% 29.60 in 10.0 mi SSW 19.6 mph 27.6 mph N/A   Scattered Clouds
12:55 AM 71.6 °F 55.4 °F 57% 29.63 in 10.0 mi SSW 18.4 mph 28.8 mph N/A   Scattered Clouds
1:15 AM 64.4 °F 55.4 °F 73% 29.71 in 6.0 mi West 25.3 mph 35.7 mph N/A Rain Light Rain
1:35 AM 62.6 °F 57.2 °F 82% 29.70 in 7.0 mi WNW 13.8 mph 20.7 mph N/A   Light Drizzle
1:55 AM 60.8 °F 57.2 °F 88% 29.69 in 10.0 mi North 4.6 mph - 0.02 in   Overcast
2:15 AM 59.0 °F 55.4 °F 88% 29.68 in 10.0 mi NE 5.8 mph - N/A   Partly Cloudy
2:35 AM 59.0 °F 55.4 °F 88% 29.69 in 10.0 mi ENE 4.6 mph - N/A   Partly Cloudy
2:55 AM 59.0 °F 55.4 °F 88% 29.65 in 10.0 mi East 6.9 mph - N/A   Mostly Cloudy
3:15 AM 59.0 °F 55.4 °F 88% 29.65 in 10.0 mi ESE 6.9 mph - N/A   Partly Cloudy
3:35 AM 59.0 °F 55.4 °F 88% 29.65 in 10.0 mi East 6.9 mph - N/A   Scattered Clouds
3:55 AM 59.0 °F 55.4 °F 88% 29.67 in 10.0 mi Calm Calm - N/A   Overcast
4:15 AM 59.0 °F 55.4 °F 88% 29.68 in 10.0 mi Calm Calm - N/A   Overcast
4:35 AM 59.0 °F 55.4 °F 88% 29.67 in 4.0 mi SSE 4.6 mph - N/A Rain Light Rain
4:55 AM 59.0 °F 55.4 °F 88% 29.68 in 10.0 mi Calm Calm - 0.08 in   Mostly Cloudy
5:15 AM 57.2 °F 55.4 °F 94% 29.69 in 10.0 mi Calm Calm - N/A   Overcast
5:35 AM 57.2 °F 55.4 °F 94% 29.68 in 10.0 mi Calm Calm - N/A   Mostly Cloudy
5:55 AM 55.4 °F 53.6 °F 94% 29.67 in 10.0 mi NE 4.6 mph - N/A   Scattered Clouds
6:15 AM 55.4 °F 55.4 °F 100% 29.70 in 9.0 mi North 6.9 mph - N/A   Mostly Cloudy
6:35 AM 55.4 °F 55.4 °F 100% 29.69 in 9.0 mi ENE 9.2 mph - N/A   Overcast
6:55 AM 57.2 °F 53.6 °F 88% 29.71 in 10.0 mi Calm Calm - N/A   Scattered Clouds
7:15 AM 57.2 °F 55.4 °F 94% 29.70 in 10.0 mi East 5.8 mph - N/A   Mostly Cloudy
7:35 AM 57.2 °F 55.4 °F 94% 29.70 in 10.0 mi Calm Calm - N/A   Mostly Cloudy
7:55 AM 59.0 °F 57.2 °F 94% 29.69 in 10.0 mi Calm Calm - N/A   Partly Cloudy
8:15 AM 62.6 °F 55.4 °F 77% 29.67 in 10.0 mi SE 8.1 mph - N/A   Clear
8:35 AM 62.6 °F 53.6 °F 72% 29.66 in 10.0 mi SE 12.7 mph 21.9 mph N/A   Mostly Cloudy
8:55 AM 64.4 °F 53.6 °F 68% 29.66 in 10.0 mi SE 12.7 mph - N/A   Mostly Cloudy
9:15 AM 64.4 °F 53.6 °F 68% 29.65 in 10.0 mi SE 10.4 mph 18.4 mph N/A   Mostly Cloudy
9:55 AM 62.6 °F 55.4 °F 77% 29.67 in 10.0 mi South 18.4 mph - N/A   Mostly Cloudy
10:15 AM 62.6 °F 55.4 °F 77% 29.70 in 7.0 mi South 18.4 mph 26.5 mph N/A   Mostly Cloudy
10:35 AM 60.8 °F 57.2 °F 88% 29.69 in 3.0 mi South 16.1 mph - N/A   Overcast
10:55 AM 60.8 °F 57.2 °F 88% 29.69 in 2.5 mi SSE 6.9 mph 18.4 mph 0.12 in Rain Rain
11:15 AM 60.8 °F 57.2 °F 88% 29.67 in 5.0 mi SSE 16.1 mph - N/A Rain Light Rain
11:35 AM 60.8 °F 57.2 °F 88% 29.67 in 10.0 mi SSE 9.2 mph - N/A   Overcast
11:55 AM 60.8 °F 57.2 °F 88% 29.69 in 4.0 mi South 11.5 mph - 0.10 in Rain Light Rain
12:15 PM 60.8 °F 59.0 °F 94% 29.66 in 3.0 mi South 10.4 mph - N/A Rain Light Rain
12:35 PM 60.8 °F 59.0 °F 94% 29.65 in 2.5 mi SE 5.8 mph 15.0 mph N/A Rain Light Rain
12:55 PM 60.8 °F 59.0 °F 94% 29.63 in 6.0 mi ESE 9.2 mph - 0.10 in Rain Light Rain
1:15 PM 60.8 °F 59.0 °F 94% 29.63 in 2.0 mi SE 11.5 mph - N/A   Mostly Cloudy
1:35 PM 60.8 °F 59.0 °F 94% 29.59 in 2.5 mi ESE 15.0 mph 21.9 mph N/A   Mostly Cloudy
1:55 PM 60.8 °F 59.0 °F 94% 29.57 in 3.0 mi ESE 12.7 mph - 0.15 in   Overcast
2:15 PM 60.8 °F 59.0 °F 94% 29.58 in 1.0 mi SE 13.8 mph - N/A Rain Light Rain
2:35 PM 60.8 °F 59.0 °F 94% 29.57 in 4.0 mi SE 10.4 mph - N/A   Overcast
2:55 PM 60.8 °F 59.0 °F 94% 29.55 in 10.0 mi SE 9.2 mph - 0.20 in   Overcast
3:15 PM 62.6 °F 59.0 °F 88% 29.55 in 9.0 mi SSE 10.4 mph - N/A   Overcast
3:35 PM 62.6 °F 60.8 °F 94% 29.52 in 7.0 mi SE 10.4 mph - N/A   Overcast
3:55 PM 62.6 °F 60.8 °F 94% 29.51 in 3.0 mi SE 11.5 mph 19.6 mph 0.03 in   Overcast
4:35 PM 64.4 °F 62.6 °F 94% 29.48 in 7.0 mi SE 8.1 mph 17.3 mph N/A   Overcast
4:55 PM 64.4 °F 62.6 °F 94% 29.46 in 7.0 mi SSE 12.7 mph - 0.01 in   Mostly Cloudy
5:15 PM 66.2 °F 62.6 °F 88% 29.45 in 9.0 mi SSE 16.1 mph - N/A   Mostly Cloudy
5:35 PM 66.2 °F 62.6 °F 88% 29.44 in 10.0 mi SSE 9.2 mph - N/A   Mostly Cloudy
5:55 PM 66.2 °F 62.6 °F 88% 29.43 in 10.0 mi South 9.2 mph 15.0 mph N/A   Overcast
6:15 PM 66.2 °F 62.6 °F 88% 29.43 in 8.0 mi South 15.0 mph - N/A   Overcast
6:35 PM 66.2 °F 60.8 °F 83% 29.43 in 10.0 mi South 15.0 mph 23.0 mph N/A   Overcast
6:55 PM 66.2 °F 60.8 °F 83% 29.42 in 10.0 mi South 12.7 mph - N/A   Overcast
7:15 PM 66.2 °F 60.8 °F 83% 29.42 in 10.0 mi South 10.4 mph - N/A   Overcast
7:35 PM 64.4 °F 60.8 °F 88% 29.42 in 5.0 mi South 13.8 mph - N/A   Haze
7:55 PM 62.6 °F 60.8 °F 94% 29.41 in 3.0 mi South 17.3 mph - 0.07 in Rain Light Rain
8:15 PM 62.6 °F 59.0 °F 88% 29.40 in 5.0 mi South 16.1 mph 24.2 mph N/A   Overcast
8:35 PM 60.8 °F 59.0 °F 94% 29.40 in 4.0 mi SSW 10.4 mph 17.3 mph N/A Rain Light Rain
8:55 PM 60.8 °F 59.0 °F 94% 29.40 in 5.0 mi SSW 9.2 mph - 0.20 in Rain Rain
9:15 PM 57.2 °F 53.6 °F 88% 29.40 in 10.0 mi NNW 15.0 mph - N/A   Overcast
9:35 PM 53.6 °F 51.8 °F 94% 29.40 in 9.0 mi North 17.3 mph - N/A Rain Light Rain
9:55 PM 51.8 °F 50.0 °F 94% 29.40 in 10.0 mi North 20.7 mph 29.9 mph 0.01 in   Overcast
10:15 PM 50.0 °F 48.2 °F 94% 29.40 in 2.5 mi North 20.7 mph 28.8 mph N/A Rain Rain
10:35 PM 50.0 °F 48.2 °F 94% 29.40 in 2.5 mi North 17.3 mph 25.3 mph N/A Rain Rain
10:55 PM 48.2 °F 46.4 °F 93% 29.39 in 2.0 mi North 20.7 mph - 0.11 in Rain Heavy Rain
11:35 PM 48.2 °F 46.4 °F 93% 29.43 in 2.5 mi NNW 15.0 mph 21.9 mph N/A Rain Rain
11:55 PM 48.2 °F 46.4 °F 93% 29.45 in 2.0 mi North 12.7 mph 18.4 mph 0.08 in Rain Heavy Rain